Year,Month,Day,Hour,Minute,Value (Times are PST for insolation in W/m^2)
2012,10,05,00,00,10.80
2012,10,05,00,01,9.40
2012,10,05,00,02,11.00
2012,10,05,00,03,11.00
2012,10,05,00,04,11.00
2012,10,05,00,05,9.80
2012,10,05,00,06,10.40
2012,10,05,00,07,9.40
2012,10,05,00,08,10.80
2012,10,05,00,09,10.80
2012,10,05,00,10,9.00
2012,10,05,00,11,9.00
2012,10,05,00,12,9.00
2012,10,05,00,13,10.10
2012,10,05,00,14,11.00
2012,10,05,00,15,11.00
2012,10,05,00,16,11.00
2012,10,05,00,17,10.80
2012,10,05,00,18,9.30
2012,10,05,00,19,11.00
2012,10,05,00,20,11.00
2012,10,05,00,21,11.00
2012,10,05,00,22,11.00
2012,10,05,00,23,11.00
2012,10,05,00,24,11.00
2012,10,05,00,25,11.00
2012,10,05,00,26,10.80
2012,10,05,00,27,9.40
2012,10,05,00,28,11.00
2012,10,05,00,29,11.00
2012,10,05,00,30,11.00
2012,10,05,00,31,11.00
2012,10,05,00,32,11.00
2012,10,05,00,33,11.00
2012,10,05,00,34,11.00
2012,10,05,00,35,11.00
2012,10,05,00,36,11.00
2012,10,05,00,37,11.00
2012,10,05,00,38,11.00
2012,10,05,00,39,11.00
2012,10,05,00,40,11.00
2012,10,05,00,41,11.00
2012,10,05,00,42,11.00
2012,10,05,00,43,11.00
2012,10,05,00,44,11.00
2012,10,05,00,45,11.00
2012,10,05,00,46,11.00
2012,10,05,00,47,11.00
2012,10,05,00,48,11.00
2012,10,05,00,49,11.00
2012,10,05,00,50,11.00
2012,10,05,00,51,11.00
2012,10,05,00,52,11.00
2012,10,05,00,53,11.00
2012,10,05,00,54,11.00
2012,10,05,00,55,11.00
2012,10,05,00,56,10.00
2012,10,05,00,57,10.30
2012,10,05,00,58,9.40
2012,10,05,00,59,9.00
2012,10,05,01,00,9.00
2012,10,05,01,01,9.30
2012,10,05,01,02,11.00
2012,10,05,01,03,11.00
2012,10,05,01,04,11.00
2012,10,05,01,05,11.00
2012,10,05,01,06,11.00
2012,10,05,01,07,11.00
2012,10,05,01,08,11.00
2012,10,05,01,09,11.00
2012,10,05,01,10,11.00
2012,10,05,01,11,11.00
2012,10,05,01,12,11.00
2012,10,05,01,13,11.00
2012,10,05,01,14,11.00
2012,10,05,01,15,11.00
2012,10,05,01,16,11.00
2012,10,05,01,17,11.00
2012,10,05,01,18,11.00
2012,10,05,01,19,10.50
2012,10,05,01,20,9.70
2012,10,05,01,21,11.00
2012,10,05,01,22,11.00
2012,10,05,01,23,11.00
2012,10,05,01,24,11.00
2012,10,05,01,25,11.00
2012,10,05,01,26,11.00
2012,10,05,01,27,11.00
2012,10,05,01,28,11.00
2012,10,05,01,29,10.20
2012,10,05,01,30,9.00
2012,10,05,01,31,10.20
2012,10,05,01,32,9.60
2012,10,05,01,33,10.60
2012,10,05,01,34,11.00
2012,10,05,01,35,11.00
2012,10,05,01,36,11.00
2012,10,05,01,37,11.00
2012,10,05,01,38,11.00
2012,10,05,01,39,9.90
2012,10,05,01,40,10.30
2012,10,05,01,41,9.50
2012,10,05,01,42,9.00
2012,10,05,01,43,9.00
2012,10,05,01,44,9.00
2012,10,05,01,45,9.00
2012,10,05,01,46,9.00
2012,10,05,01,47,9.00
2012,10,05,01,48,9.00
2012,10,05,01,49,9.00
2012,10,05,01,50,9.00
2012,10,05,01,51,9.00
2012,10,05,01,52,9.00
2012,10,05,01,53,9.00
2012,10,05,01,54,9.00
2012,10,05,01,55,9.00
2012,10,05,01,56,9.00
2012,10,05,01,57,9.00
2012,10,05,01,58,9.00
2012,10,05,01,59,9.00
2012,10,05,02,00,9.00
2012,10,05,02,01,9.00
2012,10,05,02,02,9.00
2012,10,05,02,03,9.00
2012,10,05,02,04,9.00
2012,10,05,02,05,10.10
2012,10,05,02,06,9.60
2012,10,05,02,07,10.60
2012,10,05,02,08,9.30
2012,10,05,02,09,10.80
2012,10,05,02,10,9.40
2012,10,05,02,11,10.50
2012,10,05,02,12,9.70
2012,10,05,02,13,11.00
2012,10,05,02,14,11.00
2012,10,05,02,15,9.60
2012,10,05,02,16,10.70
2012,10,05,02,17,11.00
2012,10,05,02,18,11.00
2012,10,05,02,19,11.00
2012,10,05,02,20,11.00
2012,10,05,02,21,11.00
2012,10,05,02,22,11.00
2012,10,05,02,23,11.00
2012,10,05,02,24,9.50
2012,10,05,02,25,9.00
2012,10,05,02,26,9.00
2012,10,05,02,27,9.00
2012,10,05,02,28,9.00
2012,10,05,02,29,9.00
2012,10,05,02,30,9.00
2012,10,05,02,31,9.00
2012,10,05,02,32,9.00
2012,10,05,02,33,9.00
2012,10,05,02,34,9.00
2012,10,05,02,35,9.00
2012,10,05,02,36,9.00
2012,10,05,02,37,9.00
2012,10,05,02,38,9.00
2012,10,05,02,39,9.00
2012,10,05,02,40,9.00
2012,10,05,02,41,9.00
2012,10,05,02,42,9.00
2012,10,05,02,43,9.00
2012,10,05,02,44,9.00
2012,10,05,02,45,9.00
2012,10,05,02,46,9.00
2012,10,05,02,47,9.00
2012,10,05,02,48,9.00
2012,10,05,02,49,9.00
2012,10,05,02,50,9.00
2012,10,05,02,51,9.00
2012,10,05,02,52,9.00
2012,10,05,02,53,9.00
2012,10,05,02,54,9.00
2012,10,05,02,55,9.00
2012,10,05,02,56,9.00
2012,10,05,02,57,9.00
2012,10,05,02,58,9.00
2012,10,05,02,59,9.00
2012,10,05,03,00,9.00
2012,10,05,03,01,9.00
2012,10,05,03,02,9.00
2012,10,05,03,03,9.00
2012,10,05,03,04,9.00
2012,10,05,03,05,9.00
2012,10,05,03,06,9.00
2012,10,05,03,07,9.00
2012,10,05,03,08,9.00
2012,10,05,03,09,9.00
2012,10,05,03,10,9.00
2012,10,05,03,11,9.00
2012,10,05,03,12,9.00
2012,10,05,03,13,9.00
2012,10,05,03,14,9.00
2012,10,05,03,15,9.00
2012,10,05,03,16,9.00
2012,10,05,03,17,9.00
2012,10,05,03,18,9.00
2012,10,05,03,19,9.00
2012,10,05,03,20,9.00
2012,10,05,03,21,9.00
2012,10,05,03,22,9.00
2012,10,05,03,23,9.00
2012,10,05,03,24,9.00
2012,10,05,03,25,9.00
2012,10,05,03,26,9.00
2012,10,05,03,27,9.00
2012,10,05,03,28,9.00
2012,10,05,03,29,9.00
2012,10,05,03,30,9.00
2012,10,05,03,31,9.00
2012,10,05,03,32,9.00
2012,10,05,03,33,9.00
2012,10,05,03,34,9.00
2012,10,05,03,35,9.00
2012,10,05,03,36,9.00
2012,10,05,03,37,9.00
2012,10,05,03,38,9.00
2012,10,05,03,39,9.00
2012,10,05,03,40,9.00
2012,10,05,03,41,9.00
2012,10,05,03,42,9.00
2012,10,05,03,43,9.00
2012,10,05,03,44,9.00
2012,10,05,03,45,9.00
2012,10,05,03,46,9.00
2012,10,05,03,47,9.00
2012,10,05,03,48,9.00
2012,10,05,03,49,9.00
2012,10,05,03,50,9.00
2012,10,05,03,51,9.00
2012,10,05,03,52,9.00
2012,10,05,03,53,9.00
2012,10,05,03,54,9.00
2012,10,05,03,55,9.00
2012,10,05,03,56,9.00
2012,10,05,03,57,9.00
2012,10,05,03,58,9.00
2012,10,05,03,59,9.00
2012,10,05,04,00,9.00
2012,10,05,04,01,9.00
2012,10,05,04,02,9.00
2012,10,05,04,03,9.00
2012,10,05,04,04,9.00
2012,10,05,04,05,9.00
2012,10,05,04,06,9.00
2012,10,05,04,07,9.00
2012,10,05,04,08,9.00
2012,10,05,04,09,9.00
2012,10,05,04,10,9.00
2012,10,05,04,11,9.00
2012,10,05,04,12,9.00
2012,10,05,04,13,9.00
2012,10,05,04,14,9.00
2012,10,05,04,15,9.00
2012,10,05,04,16,9.00
2012,10,05,04,17,9.00
2012,10,05,04,18,9.00
2012,10,05,04,19,9.00
2012,10,05,04,20,9.00
2012,10,05,04,21,9.00
2012,10,05,04,22,9.00
2012,10,05,04,23,9.00
2012,10,05,04,24,9.00
2012,10,05,04,25,9.00
2012,10,05,04,26,9.00
2012,10,05,04,27,9.00
2012,10,05,04,28,9.00
2012,10,05,04,29,9.00
2012,10,05,04,30,9.00
2012,10,05,04,31,9.00
2012,10,05,04,32,9.00
2012,10,05,04,33,9.00
2012,10,05,04,34,9.00
2012,10,05,04,35,9.00
2012,10,05,04,36,9.00
2012,10,05,04,37,9.00
2012,10,05,04,38,9.00
2012,10,05,04,39,9.00
2012,10,05,04,40,9.00
2012,10,05,04,41,9.00
2012,10,05,04,42,9.00
2012,10,05,04,43,9.00
2012,10,05,04,44,9.00
2012,10,05,04,45,9.00
2012,10,05,04,46,9.00
2012,10,05,04,47,9.00
2012,10,05,04,48,9.00
2012,10,05,04,49,9.00
2012,10,05,04,50,9.00
2012,10,05,04,51,9.00
2012,10,05,04,52,9.00
2012,10,05,04,53,9.00
2012,10,05,04,54,9.00
2012,10,05,04,55,9.00
2012,10,05,04,56,9.00
2012,10,05,04,57,9.00
2012,10,05,04,58,9.00
2012,10,05,04,59,9.00
2012,10,05,05,00,9.00
2012,10,05,05,01,9.00
2012,10,05,05,02,9.00
2012,10,05,05,03,9.00
2012,10,05,05,04,9.00
2012,10,05,05,05,9.00
2012,10,05,05,06,9.00
2012,10,05,05,07,9.00
2012,10,05,05,08,9.00
2012,10,05,05,09,9.00
2012,10,05,05,10,9.00
2012,10,05,05,11,9.00
2012,10,05,05,12,9.00
2012,10,05,05,13,9.00
2012,10,05,05,14,9.00
2012,10,05,05,15,9.00
2012,10,05,05,16,9.00
2012,10,05,05,17,9.00
2012,10,05,05,18,9.00
2012,10,05,05,19,9.00
2012,10,05,05,20,9.00
2012,10,05,05,21,9.00
2012,10,05,05,22,9.00
2012,10,05,05,23,9.00
2012,10,05,05,24,9.00
2012,10,05,05,25,9.00
2012,10,05,05,26,9.00
2012,10,05,05,27,9.00
2012,10,05,05,28,9.00
2012,10,05,05,29,9.00
2012,10,05,05,30,9.00
2012,10,05,05,31,9.00
2012,10,05,05,32,9.00
2012,10,05,05,33,9.00
2012,10,05,05,34,9.00
2012,10,05,05,35,9.00
2012,10,05,05,36,9.00
2012,10,05,05,37,9.00
2012,10,05,05,38,9.00
2012,10,05,05,39,9.00
2012,10,05,05,40,9.00
2012,10,05,05,41,9.00
2012,10,05,05,42,9.00
2012,10,05,05,43,9.00
2012,10,05,05,44,9.00
2012,10,05,05,45,9.00
2012,10,05,05,46,9.00
2012,10,05,05,47,9.00
2012,10,05,05,48,9.00
2012,10,05,05,49,9.00
2012,10,05,05,50,9.00
2012,10,05,05,51,9.00
2012,10,05,05,52,9.00
2012,10,05,05,53,9.00
2012,10,05,05,54,9.00
2012,10,05,05,55,9.00
2012,10,05,05,56,9.00
2012,10,05,05,57,9.00
2012,10,05,05,58,9.00
2012,10,05,05,59,9.00
2012,10,05,06,00,9.00
2012,10,05,06,01,9.00
2012,10,05,06,02,9.00
2012,10,05,06,03,9.00
2012,10,05,06,04,9.00
2012,10,05,06,05,9.00
2012,10,05,06,06,9.00
2012,10,05,06,07,9.00
2012,10,05,06,08,9.00
2012,10,05,06,09,9.00
2012,10,05,06,10,9.00
2012,10,05,06,11,9.00
2012,10,05,06,12,9.00
2012,10,05,06,13,9.00
2012,10,05,06,14,9.00
2012,10,05,06,15,9.00
2012,10,05,06,16,9.00
2012,10,05,06,17,9.00
2012,10,05,06,18,9.00
2012,10,05,06,19,9.00
2012,10,05,06,20,9.00
2012,10,05,06,21,9.00
2012,10,05,06,22,9.00
2012,10,05,06,23,9.00
2012,10,05,06,24,9.00
2012,10,05,06,25,9.00
2012,10,05,06,26,9.00
2012,10,05,06,27,9.00
2012,10,05,06,28,9.00
2012,10,05,06,29,9.00
2012,10,05,06,30,9.00
2012,10,05,06,31,9.00
2012,10,05,06,32,9.00
2012,10,05,06,33,9.00
2012,10,05,06,34,9.00
2012,10,05,06,35,9.00
2012,10,05,06,36,9.00
2012,10,05,06,37,9.00
2012,10,05,06,38,9.00
2012,10,05,06,39,9.00
2012,10,05,06,40,9.00
2012,10,05,06,41,9.00
2012,10,05,06,42,9.00
2012,10,05,06,43,9.00
2012,10,05,06,44,9.00
2012,10,05,06,45,9.00
2012,10,05,06,46,9.00
2012,10,05,06,47,9.00
2012,10,05,06,48,9.00
2012,10,05,06,49,9.00
2012,10,05,06,50,9.00
2012,10,05,06,51,9.00
2012,10,05,06,52,9.00
2012,10,05,06,53,9.00
2012,10,05,06,54,9.00
2012,10,05,06,55,9.00
2012,10,05,06,56,9.00
2012,10,05,06,57,9.00
2012,10,05,06,58,10.30
2012,10,05,06,59,11.00
2012,10,05,07,00,11.00
2012,10,05,07,01,11.00
2012,10,05,07,02,11.00
2012,10,05,07,03,11.00
2012,10,05,07,04,11.00
2012,10,05,07,05,11.00
2012,10,05,07,06,11.00
2012,10,05,07,07,11.00
2012,10,05,07,08,11.00
2012,10,05,07,09,11.00
2012,10,05,07,10,11.00
2012,10,05,07,11,11.00
2012,10,05,07,12,11.30
2012,10,05,07,13,12.00
2012,10,05,07,14,12.00
2012,10,05,07,15,12.00
2012,10,05,07,16,12.00
2012,10,05,07,17,12.00
2012,10,05,07,18,12.10
2012,10,05,07,19,14.00
2012,10,05,07,20,14.00
2012,10,05,07,21,14.00
2012,10,05,07,22,14.00
2012,10,05,07,23,14.00
2012,10,05,07,24,15.30
2012,10,05,07,25,16.00
2012,10,05,07,26,16.00
2012,10,05,07,27,16.00
2012,10,05,07,28,16.30
2012,10,05,07,29,18.00
2012,10,05,07,30,18.00
2012,10,05,07,31,18.00
2012,10,05,07,32,18.60
2012,10,05,07,33,19.00
2012,10,05,07,34,19.00
2012,10,05,07,35,19.00
2012,10,05,07,36,21.00
2012,10,05,07,37,21.00
2012,10,05,07,38,21.00
2012,10,05,07,39,21.00
2012,10,05,07,40,22.00
2012,10,05,07,41,23.00
2012,10,05,07,42,23.00
2012,10,05,07,43,23.00
2012,10,05,07,44,24.90
2012,10,05,07,45,25.00
2012,10,05,07,46,25.00
2012,10,05,07,47,25.40
2012,10,05,07,48,26.00
2012,10,05,07,49,26.00
2012,10,05,07,50,26.00
2012,10,05,07,51,27.60
2012,10,05,07,52,28.00
2012,10,05,07,53,28.00
2012,10,05,07,54,28.80
2012,10,05,07,55,32.90
2012,10,05,07,56,36.80
2012,10,05,07,57,40.90
2012,10,05,07,58,43.20
2012,10,05,07,59,45.40
2012,10,05,08,00,46.80
2012,10,05,08,01,48.80
2012,10,05,08,02,49.30
2012,10,05,08,03,51.00
2012,10,05,08,04,51.00
2012,10,05,08,05,50.20
2012,10,05,08,06,51.50
2012,10,05,08,07,59.20
2012,10,05,08,08,62.70
2012,10,05,08,09,64.60
2012,10,05,08,10,67.10
2012,10,05,08,11,70.40
2012,10,05,08,12,72.50
2012,10,05,08,13,74.70
2012,10,05,08,14,77.50
2012,10,05,08,15,80.20
2012,10,05,08,16,82.30
2012,10,05,08,17,85.40
2012,10,05,08,18,87.80
2012,10,05,08,19,90.20
2012,10,05,08,20,93.40
2012,10,05,08,21,95.70
2012,10,05,08,22,98.30
2012,10,05,08,23,102.00
2012,10,05,08,24,104.70
2012,10,05,08,25,107.90
2012,10,05,08,26,110.70
2012,10,05,08,27,112.90
2012,10,05,08,28,116.20
2012,10,05,08,29,118.70
2012,10,05,08,30,121.80
2012,10,05,08,31,124.90
2012,10,05,08,32,127.60
2012,10,05,08,33,130.60
2012,10,05,08,34,133.50
2012,10,05,08,35,136.70
2012,10,05,08,36,139.20
2012,10,05,08,37,142.80
2012,10,05,08,38,146.90
2012,10,05,08,39,149.80
2012,10,05,08,40,152.90
2012,10,05,08,41,156.60
2012,10,05,08,42,160.80
2012,10,05,08,43,164.40
2012,10,05,08,44,167.00
2012,10,05,08,45,171.10
2012,10,05,08,46,172.80
2012,10,05,08,47,177.00
2012,10,05,08,48,179.80
2012,10,05,08,49,183.00
2012,10,05,08,50,185.60
2012,10,05,08,51,189.00
2012,10,05,08,52,192.60
2012,10,05,08,53,195.10
2012,10,05,08,54,199.40
2012,10,05,08,55,202.60
2012,10,05,08,56,204.80
2012,10,05,08,57,207.40
2012,10,05,08,58,210.20
2012,10,05,08,59,213.10
2012,10,05,09,00,215.50
2012,10,05,09,01,217.80
2012,10,05,09,02,220.30
2012,10,05,09,03,224.00
2012,10,05,09,04,227.70
2012,10,05,09,05,230.30
2012,10,05,09,06,233.00
2012,10,05,09,07,235.90
2012,10,05,09,08,239.90
2012,10,05,09,09,242.60
2012,10,05,09,10,245.80
2012,10,05,09,11,248.30
2012,10,05,09,12,250.80
2012,10,05,09,13,253.70
2012,10,05,09,14,256.40
2012,10,05,09,15,259.10
2012,10,05,09,16,261.40
2012,10,05,09,17,263.50
2012,10,05,09,18,264.90
2012,10,05,09,19,269.10
2012,10,05,09,20,271.60
2012,10,05,09,21,275.20
2012,10,05,09,22,278.40
2012,10,05,09,23,280.10
2012,10,05,09,24,282.20
2012,10,05,09,25,285.80
2012,10,05,09,26,287.80
2012,10,05,09,27,289.80
2012,10,05,09,28,294.10
2012,10,05,09,29,295.50
2012,10,05,09,30,298.40
2012,10,05,09,31,301.40
2012,10,05,09,32,303.00
2012,10,05,09,33,305.30
2012,10,05,09,34,307.40
2012,10,05,09,35,310.40
2012,10,05,09,36,313.10
2012,10,05,09,37,315.20
2012,10,05,09,38,317.20
2012,10,05,09,39,320.80
2012,10,05,09,40,322.50
2012,10,05,09,41,325.30
2012,10,05,09,42,328.30
2012,10,05,09,43,331.40
2012,10,05,09,44,333.80
2012,10,05,09,45,336.10
2012,10,05,09,46,338.60
2012,10,05,09,47,341.60
2012,10,05,09,48,343.80
2012,10,05,09,49,345.50
2012,10,05,09,50,348.60
2012,10,05,09,51,350.00
2012,10,05,09,52,351.70
2012,10,05,09,53,355.00
2012,10,05,09,54,357.20
2012,10,05,09,55,359.20
2012,10,05,09,56,360.70
2012,10,05,09,57,362.90
2012,10,05,09,58,364.00
2012,10,05,09,59,365.40
2012,10,05,10,00,366.00
2012,10,05,10,01,366.90
2012,10,05,10,02,369.40
2012,10,05,10,03,373.20
2012,10,05,10,04,374.60
2012,10,05,10,05,377.50
2012,10,05,10,06,380.50
2012,10,05,10,07,382.30
2012,10,05,10,08,384.50
2012,10,05,10,09,387.50
2012,10,05,10,10,389.80
2012,10,05,10,11,390.40
2012,10,05,10,12,394.40
2012,10,05,10,13,396.40
2012,10,05,10,14,398.70
2012,10,05,10,15,402.00
2012,10,05,10,16,403.60
2012,10,05,10,17,407.00
2012,10,05,10,18,409.70
2012,10,05,10,19,412.90
2012,10,05,10,20,413.30
2012,10,05,10,21,415.80
2012,10,05,10,22,418.70
2012,10,05,10,23,420.00
2012,10,05,10,24,422.20
2012,10,05,10,25,424.00
2012,10,05,10,26,424.80
2012,10,05,10,27,426.80
2012,10,05,10,28,431.00
2012,10,05,10,29,431.00
2012,10,05,10,30,432.60
2012,10,05,10,31,436.90
2012,10,05,10,32,438.50
2012,10,05,10,33,441.60
2012,10,05,10,34,443.00
2012,10,05,10,35,445.50
2012,10,05,10,36,447.90
2012,10,05,10,37,450.60
2012,10,05,10,38,454.20
2012,10,05,10,39,455.00
2012,10,05,10,40,455.90
2012,10,05,10,41,459.20
2012,10,05,10,42,461.70
2012,10,05,10,43,463.60
2012,10,05,10,44,465.70
2012,10,05,10,45,468.10
2012,10,05,10,46,471.40
2012,10,05,10,47,473.60
2012,10,05,10,48,475.00
2012,10,05,10,49,476.60
2012,10,05,10,50,479.20
2012,10,05,10,51,481.40
2012,10,05,10,52,482.80
2012,10,05,10,53,484.80
2012,10,05,10,54,487.30
2012,10,05,10,55,489.00
2012,10,05,10,56,489.30
2012,10,05,10,57,490.80
2012,10,05,10,58,493.10
2012,10,05,10,59,495.30
2012,10,05,11,00,496.80
2012,10,05,11,01,498.80
2012,10,05,11,02,501.10
2012,10,05,11,03,503.00
2012,10,05,11,04,503.90
2012,10,05,11,05,506.00
2012,10,05,11,06,507.00
2012,10,05,11,07,509.20
2012,10,05,11,08,510.00
2012,10,05,11,09,512.40
2012,10,05,11,10,513.00
2012,10,05,11,11,515.00
2012,10,05,11,12,515.40
2012,10,05,11,13,517.00
2012,10,05,11,14,517.80
2012,10,05,11,15,519.00
2012,10,05,11,16,519.70
2012,10,05,11,17,521.50
2012,10,05,11,18,523.60
2012,10,05,11,19,526.00
2012,10,05,11,20,527.00
2012,10,05,11,21,527.50
2012,10,05,11,22,529.80
2012,10,05,11,23,531.90
2012,10,05,11,24,533.60
2012,10,05,11,25,534.00
2012,10,05,11,26,537.00
2012,10,05,11,27,538.00
2012,10,05,11,28,539.90
2012,10,05,11,29,540.60
2012,10,05,11,30,543.00
2012,10,05,11,31,544.80
2012,10,05,11,32,547.00
2012,10,05,11,33,547.60
2012,10,05,11,34,549.40
2012,10,05,11,35,551.60
2012,10,05,11,36,552.00
2012,10,05,11,37,554.20
2012,10,05,11,38,555.00
2012,10,05,11,39,555.70
2012,10,05,11,40,557.00
2012,10,05,11,41,557.00
2012,10,05,11,42,558.20
2012,10,05,11,43,560.40
2012,10,05,11,44,561.00
2012,10,05,11,45,562.80
2012,10,05,11,46,564.00
2012,10,05,11,47,564.50
2012,10,05,11,48,566.70
2012,10,05,11,49,568.90
2012,10,05,11,50,570.00
2012,10,05,11,51,570.70
2012,10,05,11,52,571.00
2012,10,05,11,53,572.80
2012,10,05,11,54,573.20
2012,10,05,11,55,575.40
2012,10,05,11,56,577.00
2012,10,05,11,57,577.40
2012,10,05,11,58,578.00
2012,10,05,11,59,578.00
2012,10,05,12,00,578.00
2012,10,05,12,01,579.60
2012,10,05,12,02,581.80
2012,10,05,12,03,582.50
2012,10,05,12,04,585.00
2012,10,05,12,05,585.00
2012,10,05,12,06,585.00
2012,10,05,12,07,587.30
2012,10,05,12,08,587.70
2012,10,05,12,09,588.50
2012,10,05,12,10,595.00
2012,10,05,12,11,589.00
2012,10,05,12,12,589.00
2012,10,05,12,13,589.00
2012,10,05,12,14,589.90
2012,10,05,12,15,591.00
2012,10,05,12,16,592.80
2012,10,05,12,17,594.00
2012,10,05,12,18,595.60
2012,10,05,12,19,596.00
2012,10,05,12,20,596.00
2012,10,05,12,21,595.60
2012,10,05,12,22,594.60
2012,10,05,12,23,596.90
2012,10,05,12,24,598.50
2012,10,05,12,25,599.00
2012,10,05,12,26,599.00
2012,10,05,12,27,600.70
2012,10,05,12,28,602.90
2012,10,05,12,29,603.00
2012,10,05,12,30,603.60
2012,10,05,12,31,605.00
2012,10,05,12,32,605.00
2012,10,05,12,33,605.60
2012,10,05,12,34,606.00
2012,10,05,12,35,606.00
2012,10,05,12,36,606.00
2012,10,05,12,37,606.20
2012,10,05,12,38,608.00
2012,10,05,12,39,608.00
2012,10,05,12,40,608.90
2012,10,05,12,41,611.10
2012,10,05,12,42,610.80
2012,10,05,12,43,611.50
2012,10,05,12,44,612.00
2012,10,05,12,45,610.20
2012,10,05,12,46,612.00
2012,10,05,12,47,612.00
2012,10,05,12,48,612.00
2012,10,05,12,49,612.50
2012,10,05,12,50,613.00
2012,10,05,12,51,613.00
2012,10,05,12,52,613.00
2012,10,05,12,53,612.20
2012,10,05,12,54,612.50
2012,10,05,12,55,616.60
2012,10,05,12,56,615.00
2012,10,05,12,57,615.70
2012,10,05,12,58,616.00
2012,10,05,12,59,615.00
2012,10,05,13,00,615.00
2012,10,05,13,01,615.00
2012,10,05,13,02,616.70
2012,10,05,13,03,615.00
2012,10,05,13,04,615.40
2012,10,05,13,05,617.00
2012,10,05,13,06,617.00
2012,10,05,13,07,617.00
2012,10,05,13,08,617.00
2012,10,05,13,09,617.00
2012,10,05,13,10,617.00
2012,10,05,13,11,617.10
2012,10,05,13,12,618.60
2012,10,05,13,13,619.10
2012,10,05,13,14,621.20
2012,10,05,13,15,616.00
2012,10,05,13,16,615.00
2012,10,05,13,17,616.40
2012,10,05,13,18,617.00
2012,10,05,13,19,615.20
2012,10,05,13,20,615.00
2012,10,05,13,21,615.00
2012,10,05,13,22,615.00
2012,10,05,13,23,615.00
2012,10,05,13,24,613.90
2012,10,05,13,25,614.20
2012,10,05,13,26,613.50
2012,10,05,13,27,613.00
2012,10,05,13,28,613.10
2012,10,05,13,29,614.50
2012,10,05,13,30,612.20
2012,10,05,13,31,612.70
2012,10,05,13,32,614.40
2012,10,05,13,33,614.70
2012,10,05,13,34,612.30
2012,10,05,13,35,610.50
2012,10,05,13,36,610.00
2012,10,05,13,37,608.30
2012,10,05,13,38,609.60
2012,10,05,13,39,608.00
2012,10,05,13,40,608.00
2012,10,05,13,41,608.00
2012,10,05,13,42,608.00
2012,10,05,13,43,606.60
2012,10,05,13,44,605.20
2012,10,05,13,45,605.00
2012,10,05,13,46,605.00
2012,10,05,13,47,604.60
2012,10,05,13,48,603.00
2012,10,05,13,49,603.00
2012,10,05,13,50,603.00
2012,10,05,13,51,603.00
2012,10,05,13,52,600.00
2012,10,05,13,53,600.70
2012,10,05,13,54,600.90
2012,10,05,13,55,599.00
2012,10,05,13,56,599.00
2012,10,05,13,57,599.00
2012,10,05,13,58,598.50
2012,10,05,13,59,598.00
2012,10,05,14,00,598.00
2012,10,05,14,01,596.50
2012,10,05,14,02,600.50
2012,10,05,14,03,597.40
2012,10,05,14,04,592.00
2012,10,05,14,05,592.00
2012,10,05,14,06,591.60
2012,10,05,14,07,591.00
2012,10,05,14,08,588.50
2012,10,05,14,09,588.40
2012,10,05,14,10,587.40
2012,10,05,14,11,588.70
2012,10,05,14,12,586.70
2012,10,05,14,13,584.70
2012,10,05,14,14,583.30
2012,10,05,14,15,582.00
2012,10,05,14,16,580.80
2012,10,05,14,17,578.70
2012,10,05,14,18,578.00
2012,10,05,14,19,577.10
2012,10,05,14,20,576.90
2012,10,05,14,21,574.60
2012,10,05,14,22,573.00
2012,10,05,14,23,573.00
2012,10,05,14,24,572.00
2012,10,05,14,25,571.00
2012,10,05,14,26,571.00
2012,10,05,14,27,568.60
2012,10,05,14,28,568.00
2012,10,05,14,29,565.50
2012,10,05,14,30,563.20
2012,10,05,14,31,563.70
2012,10,05,14,32,562.10
2012,10,05,14,33,562.10
2012,10,05,14,34,561.80
2012,10,05,14,35,559.50
2012,10,05,14,36,557.30
2012,10,05,14,37,556.90
2012,10,05,14,38,554.80
2012,10,05,14,39,554.00
2012,10,05,14,40,552.50
2012,10,05,14,41,550.00
2012,10,05,14,42,550.00
2012,10,05,14,43,548.70
2012,10,05,14,44,547.20
2012,10,05,14,45,549.70
2012,10,05,14,46,543.30
2012,10,05,14,47,542.60
2012,10,05,14,48,540.70
2012,10,05,14,49,539.20
2012,10,05,14,50,537.00
2012,10,05,14,51,536.00
2012,10,05,14,52,536.00
2012,10,05,14,53,534.40
2012,10,05,14,54,533.10
2012,10,05,14,55,530.70
2012,10,05,14,56,528.50
2012,10,05,14,57,527.00
2012,10,05,14,58,528.80
2012,10,05,14,59,527.20
2012,10,05,15,00,524.00
2012,10,05,15,01,522.50
2012,10,05,15,02,520.20
2012,10,05,15,03,519.00
2012,10,05,15,04,516.60
2012,10,05,15,05,514.40
2012,10,05,15,06,512.60
2012,10,05,15,07,511.10
2012,10,05,15,08,508.80
2012,10,05,15,09,508.00
2012,10,05,15,10,506.30
2012,10,05,15,11,504.20
2012,10,05,15,12,503.90
2012,10,05,15,13,502.60
2012,10,05,15,14,501.00
2012,10,05,15,15,499.40
2012,10,05,15,16,496.50
2012,10,05,15,17,494.70
2012,10,05,15,18,492.60
2012,10,05,15,19,489.50
2012,10,05,15,20,489.00
2012,10,05,15,21,488.70
2012,10,05,15,22,486.00
2012,10,05,15,23,483.00
2012,10,05,15,24,481.50
2012,10,05,15,25,478.80
2012,10,05,15,26,476.60
2012,10,05,15,27,476.00
2012,10,05,15,28,475.10
2012,10,05,15,29,470.80
2012,10,05,15,30,468.80
2012,10,05,15,31,467.40
2012,10,05,15,32,466.00
2012,10,05,15,33,464.00
2012,10,05,15,34,461.40
2012,10,05,15,35,459.50
2012,10,05,15,36,455.60
2012,10,05,15,37,455.00
2012,10,05,15,38,453.40
2012,10,05,15,39,449.50
2012,10,05,15,40,447.30
2012,10,05,15,41,445.50
2012,10,05,15,42,442.70
2012,10,05,15,43,439.70
2012,10,05,15,44,438.20
2012,10,05,15,45,438.00
2012,10,05,15,46,435.80
2012,10,05,15,47,433.60
2012,10,05,15,48,431.70
2012,10,05,15,49,429.40
2012,10,05,15,50,427.00
2012,10,05,15,51,425.80
2012,10,05,15,52,422.80
2012,10,05,15,53,420.40
2012,10,05,15,54,418.20
2012,10,05,15,55,416.40
2012,10,05,15,56,412.60
2012,10,05,15,57,410.70
2012,10,05,15,58,408.20
2012,10,05,15,59,404.90
2012,10,05,16,00,403.40
2012,10,05,16,01,400.00
2012,10,05,16,02,397.30
2012,10,05,16,03,396.90
2012,10,05,16,04,394.00
2012,10,05,16,05,392.90
2012,10,05,16,06,389.30
2012,10,05,16,07,387.50
2012,10,05,16,08,384.60
2012,10,05,16,09,381.60
2012,10,05,16,10,380.20
2012,10,05,16,11,378.20
2012,10,05,16,12,375.60
2012,10,05,16,13,373.00
2012,10,05,16,14,371.80
2012,10,05,16,15,368.20
2012,10,05,16,16,366.50
2012,10,05,16,17,363.40
2012,10,05,16,18,360.50
2012,10,05,16,19,359.20
2012,10,05,16,20,359.00
2012,10,05,16,21,352.90
2012,10,05,16,22,351.40
2012,10,05,16,23,348.60
2012,10,05,16,24,345.50
2012,10,05,16,25,343.90
2012,10,05,16,26,340.40
2012,10,05,16,27,338.20
2012,10,05,16,28,336.20
2012,10,05,16,29,333.70
2012,10,05,16,30,329.80
2012,10,05,16,31,328.30
2012,10,05,16,32,326.30
2012,10,05,16,33,324.00
2012,10,05,16,34,321.20
2012,10,05,16,35,318.60
2012,10,05,16,36,315.60
2012,10,05,16,37,314.80
2012,10,05,16,38,310.70
2012,10,05,16,39,307.50
2012,10,05,16,40,305.30
2012,10,05,16,41,302.70
2012,10,05,16,42,300.00
2012,10,05,16,43,297.80
2012,10,05,16,44,295.60
2012,10,05,16,45,292.60
2012,10,05,16,46,290.00
2012,10,05,16,47,286.70
2012,10,05,16,48,284.00
2012,10,05,16,49,280.20
2012,10,05,16,50,278.50
2012,10,05,16,51,275.60
2012,10,05,16,52,272.60
2012,10,05,16,53,269.60
2012,10,05,16,54,269.00
2012,10,05,16,55,263.80
2012,10,05,16,56,261.60
2012,10,05,16,57,259.10
2012,10,05,16,58,256.20
2012,10,05,16,59,253.00
2012,10,05,17,00,250.40
2012,10,05,17,01,247.10
2012,10,05,17,02,243.60
2012,10,05,17,03,240.90
2012,10,05,17,04,236.80
2012,10,05,17,05,235.00
2012,10,05,17,06,230.90
2012,10,05,17,07,228.00
2012,10,05,17,08,224.80
2012,10,05,17,09,221.10
2012,10,05,17,10,216.80